Temp
19 20 20 21 21 21 21 22 22 23 23 24 24 24 25 25 25 26 26 26 27 27 26 26 26 26 27 29 28 28 33 32 31 32 32 30 31 28 27 26 25 24 25 21 19
19 20 20 21 21 21 21 22 22 23 23 24 24 24 24 25 25 26 27 27 27 27 26 26 28 28 30 30 30 33 33 32 33 32 32 31 31 29 29 27 25 23 21 20 19
19 20 20 20 21 21 21 22 22 22 23 23 24 24 24 24 25 28 28 27 27 27 26 27 27 28 31 31 31 32 33 33 33 32 31 32 31 30 30 30 27 23 21 20 20
19 20 20 20 21 21 22 22 22 22 22 23 23 23 24 24 29 26 27 27 27 27 26 27 28 30 32 32 31 33 32 32 33 32 31 32 31 30 30 29 27 24 22 21 21
19 19 20 20 21 21 22 22 22 22 22 23 23 23 23 24 27 26 26 27 27 27 27 28 29 30 32 32 32 33 33 32 33 32 31 31 31 30 28 27 25 23 22 22 22
19 19 20 20 21 21 22 22 22 22 22 23 23 23 23 27 26 26 26 26 26 26 27 27 29 29 31 31 32 31 32 33 32 32 31 32 30 31 27 26 25 23 23 23 22
19 19 20 21 21 22 22 22 22 22 22 22 23 23 21 26 25 25 26 25 25 26 27 27 27 29 30 32 30 31 32 34 34 33 32 32 31 31 27 26 25 24 24 23 22
19 19 20 20 21 22 23 22 22 22 22 22 22 22 26 25 25 26 25 25 25 25 26 26 27 29 30 29 31 32 33 34 34 33 32 33 32 29 28 27 26 25 24 23 23
18 19 19 20 21 22 23 22 22 22 22 22 22 21 28 25 25 24 25 25 25 25 25 26 27 30 30 32 33 33 34 34 33 34 33 34 32 29 28 28 27 26 25 24 23
18 19 19 20 21 22 22 22 22 21 22 22 22 22 24 26 25 24 24 25 26 26 27 27 29 32 32 33 33 33 33 34 34 34 34 34 32 30 28 29 28 27 25 25 24
18 18 19 20 21 21 21 21 20 20 20 27 27 27 26 25 25 25 25 26 27 28 30 29 31 32 33 33 32 32 33 34 34 33 34 34 33 31 29 29 29 28 26 26 25
17 18 19 20 21 21 21 21 21 21 25 25 24 24 25 26 27 26 26 28 28 30 31 30 31 33 32 32 31 32 33 33 33 33 33 33 33 32 30 30 30 29 28 27 26
16 18 19 20 21 20 21 20 22 22 25 27 25 26 26 26 28 27 27 29 30 31 30 32 33 31 31 31 32 33 34 33 33 32 34 33 32 31 31 30 30 29 28 28 28
16 17 18 20 20 20 20 21 22 22 27 29 27 27 26 28 29 28 28 29 30 31 31 32 32 31 31 32 33 33 33 33 33 33 33 33 32 32 33 31 30 29 29 28 28
15 16 17 18 19 20 20 21 22 21 27 30 28 27 28 29 30 28 28 28 31 31 30 32 31 31 32 33 33 33 33 33 33 33 33 32 33 34 33 32 33 32 30 29 28
15 15 17 17 19 20 21 21 21 26 26 28 28 28 29 29 30 28 28 28 30 31 31 32 31 33 34 33 33 32 32 32 32 33 31 33 32 33 33 33 34 33 31 30 29
15 15 16 17 18 19 20 21 25 26 29 29 29 30 30 30 30 29 29 29 30 29 29 31 32 33 32 32 32 32 33 31 30 31 31 31 31 33 33 32 32 33 32 30 29
15 15 16 17 18 19 19 24 24 28 29 29 30 30 30 31 31 30 30 30 31 32 32 31 30 32 33 33 32 32 33 32 29 31 31 30 30 32 31 30 29 30 32 31 29
14 16 17 18 19 19 20 24 25 27 29 29 29 29 30 31 31 30 30 31 31 31 31 31 32 33 33 33 33 32 31 33 31 31 31 32 31 32 31 31 30 30 31 31 30
13 14 15 18 18 18 22 23 27 29 28 29 29 30 29 30 29 30 30 31 31 32 32 32 31 33 31 32 31 32 33 31 32 29 29 30 30 31 31 31 30 30 30 30 29
12 14 16 16 16 18 23 25 27 27 27 28 29 30 30 30 30 30 31 32 32 31 32 32 31 31 30 31 32 31 31 32 33 31 30 30 31 32 31 31 31 30 30 29 29
9 18 15 16 19 21 23 26 26 27 26 28 28 29 30 31 30 31 31 31 31 32 31 32 32 31 31 30 31 33 33 32 31 29 30 30 31 33 32 31 30 30 29 29 28
10 14 13 13 21 23 24 25 26 27 28 28 28 29 30 30 29 31 31 32 31 32 31 32 31 30 29 30 30 31 32 32 32 31 30 30 31 31 30 30 29 29 29 28 27
8 17 16 13 19 21 23 23 24 25 27 28 29 29 28 28 30 30 31 29 29 31 28 30 32 31 31 31 32 30 30 31 32 31 31 30 31 31 30 30 29 27 27 27 25
9 16 13 19 20 21 23 24 24 25 25 27 27 28 28 28 29 29 31 29 28 25 29 31 30 31 32 32 32 32 31 31 31 31 30 31 30 30 29 28 26 25 26 25 25
10 12 13 15 15 19 18 22 24 26 26 26 26 28 28 28 29 29 30 29 29 27 29 31 29 30 30 30 31 31 31 31 31 31 30 30 29 30 27 27 26 25 24 24 24
6 6 8 15 18 19 21 21 23 25 26 26 27 28 28 28 29 29 29 29 31 29 28 29 29 28 29 29 30 29 30 30 30 30 30 29 29 28 28 26 25 25 24 23 22
Height
1531 1529 1527 1525 1523 1521 1519 1517 1516 1515 1515 1516 1516 1517 1518 1519 1520 1521 1521 1523 1523 1523 1524 1525 1526 1526 1526 1524 1522 1518 1508 1517 1517 1513 1514 1519 1519 1527 1530 1533 1537 1539 1541 1549 1555
1531 1529 1527 1525 1523 1520 1518 1516 1514 1514 1513 1514 1515 1515 1517 1519 1519 1519 1521 1521 1522 1524 1525 1527 1527 1527 1524 1522 1520 1511 1509 1517 1515 1515 1516 1518 1520 1527 1530 1534 1540 1543 1549 1553 1557
1530 1528 1526 1524 1522 1519 1517 1515 1513 1512 1512 1512 1513 1514 1516 1518 1520 1518 1517 1520 1522 1523 1525 1527 1527 1527 1523 1522 1520 1516 1513 1515 1514 1518 1517 1517 1522 1526 1526 1528 1537 1543 1550 1555 1559
1529 1527 1525 1523 1521 1518 1516 1514 1512 1511 1511 1511 1511 1513 1516 1518 1517 1515 1516 1518 1521 1523 1526 1527 1527 1524 1520 1518 1521 1515 1517 1518 1516 1518 1520 1519 1524 1527 1529 1532 1538 1545 1550 1556 1561
1529 1526 1524 1522 1520 1517 1515 1512 1510 1510 1510 1509 1511 1512 1515 1519 1517 1515 1515 1517 1521 1523 1526 1527 1526 1523 1518 1520 1520 1517 1515 1518 1517 1518 1520 1523 1525 1528 1534 1537 1542 1548 1553 1557 1562
1527 1525 1522 1520 1518 1516 1513 1511 1509 1509 1508 1508 1510 1512 1515 1516 1514 1515 1515 1517 1521 1524 1526 1527 1526 1526 1523 1522 1521 1521 1518 1517 1517 1519 1521 1521 1527 1528 1538 1541 1546 1551 1555 1559 1563
1526 1523 1521 1518 1516 1514 1512 1510 1509 1508 1507 1508 1510 1512 1514 1514 1513 1514 1515 1518 1520 1524 1526 1527 1527 1526 1524 1521 1524 1522 1520 1511 1513 1516 1520 1520 1527 1527 1537 1542 1547 1552 1555 1559 1563
1525 1522 1519 1517 1515 1512 1510 1509 1509 1508 1507 1508 1510 1513 1512 1511 1511 1513 1515 1517 1519 1522 1525 1526 1526 1526 1524 1524 1520 1517 1514 1512 1512 1515 1520 1518 1527 1533 1538 1542 1547 1551 1555 1559 1563
1523 1521 1518 1515 1513 1511 1509 1508 1508 1508 1508 1509 1511 1512 1509 1509 1511 1512 1514 1517 1520 1522 1524 1524 1526 1524 1524 1519 1516 1512 1512 1509 1515 1514 1516 1515 1524 1534 1538 1541 1546 1550 1555 1559 1563
1521 1519 1516 1514 1512 1509 1508 1507 1508 1508 1509 1510 1511 1515 1508 1507 1508 1510 1513 1516 1519 1523 1525 1526 1524 1519 1515 1515 1518 1513 1511 1510 1513 1513 1513 1514 1522 1532 1536 1538 1543 1548 1553 1557 1561
1518 1517 1514 1512 1510 1509 1508 1508 1510 1510 1508 1503 1503 1504 1504 1506 1507 1510 1512 1516 1519 1521 1518 1521 1519 1516 1507 1507 1510 1512 1508 1510 1511 1513 1515 1510 1519 1528 1534 1537 1541 1545 1549 1554 1558
1516 1514 1512 1510 1508 1508 1507 1509 1507 1508 1504 1501 1502 1503 1504 1505 1507 1510 1513 1514 1515 1514 1514 1520 1518 1505 1510 1513 1514 1513 1511 1512 1515 1515 1515 1515 1520 1524 1532 1533 1537 1542 1546 1549 1554
1513 1511 1509 1509 1507 1507 1507 1509 1506 1505 1503 1496 1497 1499 1502 1505 1502 1506 1510 1509 1510 1509 1512 1509 1504 1510 1512 1512 1513 1507 1507 1511 1511 1515 1512 1515 1524 1526 1527 1532 1535 1538 1543 1547 1550
1510 1508 1507 1506 1509 1506 1507 1506 1505 1505 1496 1485 1491 1493 1498 1500 1501 1503 1507 1509 1508 1508 1509 1507 1506 1510 1510 1508 1505 1508 1507 1508 1511 1516 1523 1513 1527 1519 1517 1526 1531 1535 1539 1543 1547
1508 1506 1505 1505 1504 1504 1505 1505 1505 1505 1506 1477 1485 1488 1490 1494 1491 1500 1505 1507 1503 1504 1509 1504 1506 1508 1508 1503 1503 1507 1507 1509 1511 1511 1515 1519 1523 1508 1512 1519 1519 1526 1532 1538 1544
1505 1503 1501 1502 1501 1502 1502 1503 1505 1503 1502 1478 1478 1482 1486 1487 1490 1495 1502 1505 1503 1502 1504 1498 1503 1501 1497 1502 1504 1508 1512 1513 1513 1509 1532 1513 1522 1513 1508 1512 1508 1515 1525 1533 1539
1501 1499 1498 1498 1501 1499 1500 1504 1500 1495 1472 1472 1473 1473 1475 1479 1485 1489 1494 1499 1498 1510 1508 1500 1500 1498 1501 1505 1507 1507 1509 1524 1535 1531 1531 1516 1525 1511 1505 1510 1513 1511 1518 1527 1534
1495 1494 1492 1493 1494 1496 1499 1498 1496 1469 1468 1465 1465 1468 1472 1471 1478 1483 1488 1493 1491 1488 1490 1503 1512 1497 1495 1495 1503 1505 1499 1511 1544 1531 1521 1524 1530 1511 1510 1513 1515 1515 1513 1521 1529
1490 1488 1487 1487 1489 1492 1497 1487 1477 1469 1461 1464 1465 1469 1470 1468 1472 1480 1481 1482 1483 1487 1491 1495 1495 1488 1493 1493 1495 1505 1512 1497 1514 1516 1524 1511 1513 1505 1507 1508 1511 1512 1512 1516 1525
1485 1484 1482 1481 1484 1489 1488 1473 1464 1461 1465 1463 1465 1460 1468 1466 1475 1475 1477 1473 1477 1482 1481 1483 1497 1486 1497 1497 1500 1498 1495 1515 1509 1537 1540 1521 1525 1514 1509 1506 1509 1511 1513 1518 1523
1485 1483 1475 1476 1481 1485 1468 1461 1460 1462 1467 1463 1458 1456 1455 1460 1465 1468 1468 1467 1471 1477 1482 1481 1488 1493 1496 1495 1493 1505 1503 1500 1498 1511 1522 1531 1517 1506 1509 1507 1508 1511 1513 1516 1521
1483 1477 1471 1473 1478 1468 1461 1457 1459 1458 1464 1462 1462 1456 1454 1451 1458 1460 1464 1464 1466 1470 1479 1480 1481 1491 1490 1490 1491 1483 1488 1494 1508 1525 1513 1518 1516 1500 1506 1509 1510 1510 1513 1516 1520
1483 1475 1470 1471 1460 1454 1458 1456 1455 1455 1453 1456 1457 1456 1453 1453 1462 1454 1457 1458 1465 1466 1471 1475 1483 1497 1502 1497 1495 1492 1490 1489 1492 1500 1514 1522 1510 1504 1507 1509 1511 1511 1512 1516 1520
1482 1466 1467 1468 1458 1454 1450 1454 1453 1453 1449 1450 1451 1452 1455 1455 1451 1453 1453 1463 1467 1466 1470 1474 1472 1480 1486 1485 1478 1495 1494 1492 1494 1505 1502 1507 1502 1501 1505 1508 1510 1513 1514 1516 1521
1479 1464 1463 1449 1452 1453 1447 1445 1447 1446 1449 1448 1450 1451 1451 1456 1452 1454 1450 1461 1468 1469 1470 1469 1477 1476 1469 1472 1472 1480 1484 1491 1495 1492 1501 1495 1501 1501 1507 1512 1514 1514 1514 1516 1519
1476 1469 1465 1459 1456 1451 1450 1445 1440 1439 1441 1444 1448 1445 1448 1452 1448 1451 1451 1456 1458 1469 1468 1466 1477 1474 1477 1477 1477 1481 1479 1485 1488 1488 1493 1497 1502 1502 1509 1511 1513 1514 1515 1516 1518
1474 1472 1471 1452 1449 1448 1440 1442 1439 1439 1437 1440 1443 1441 1443 1445 1448 1448 1447 1450 1447 1456 1462 1467 1471 1481 1484 1481 1481 1491 1480 1482 1484 1488 1490 1502 1497 1504 1507 1510 1511 1513 1515 1517 1519
Wind_Speed
14 14 14 13 13 12 12 10 9 7 7 8 9 9 9 9 8 9 7 5 6 5 4 3 2 4 4 3 2 3 1 7 8 9 8 8 6 6 9 14 13 9 13 25 22
14 14 14 14 14 13 13 12 10 6 7 8 9 9 9 8 9 13 6 7 7 7 4 5 4 3 1 3 3 4 6 7 5 8 4 3 2 10 10 12 17 23 23 25 22
15 15 15 15 14 14 13 13 10 6 6 7 9 10 8 6 4 5 9 10 10 9 6 5 5 2 1 1 4 3 8 6 6 8 7 7 7 5 10 7 12 24 26 23 22
15 15 15 15 15 15 14 14 9 5 5 6 8 10 8 8 5 3 9 14 11 10 7 6 5 4 1 3 4 4 3 6 8 5 3 5 11 8 11 8 16 23 26 23 21
15 16 15 15 15 15 14 13 8 4 5 5 9 11 9 6 5 3 6 15 13 12 8 7 5 3 2 3 4 4 5 6 9 4 5 7 8 9 13 16 21 25 24 23 20
15 16 16 16 15 15 14 12 6 4 3 5 10 12 9 9 7 6 5 13 13 11 8 7 2 3 2 1 5 6 13 13 2 6 8 8 10 6 9 17 22 23 22 21 20
16 16 16 16 16 14 13 9 3 4 1 6 11 12 7 1 9 8 7 9 12 9 8 6 2 4 2 2 2 7 11 6 5 7 8 10 10 7 15 18 22 21 20 20 19
16 16 16 17 16 14 12 5 3 3 0 6 10 10 4 9 8 7 10 11 14 10 6 5 2 3 3 2 6 7 5 10 6 8 6 14 12 11 16 19 20 20 20 20 19
16 16 16 16 16 14 8 3 3 2 2 5 8 5 5 8 8 10 10 10 12 9 5 6 2 4 5 9 8 8 9 8 9 5 7 10 12 13 16 16 18 19 19 19 18
17 16 16 15 14 12 5 4 0 2 3 5 4 5 7 7 11 11 11 13 13 13 8 7 7 8 8 9 5 9 7 7 8 8 7 7 11 13 16 16 18 18 19 18 18
17 16 14 14 12 7 3 1 3 2 8 6 4 3 8 9 12 11 13 15 13 17 11 13 9 11 12 9 3 1 5 11 5 2 6 4 9 12 16 15 17 17 18 18 17
18 16 14 12 11 3 2 0 2 2 8 13 13 10 7 12 11 15 19 14 19 16 14 7 13 9 3 4 6 5 7 9 5 2 8 6 5 9 14 15 17 18 17 17 17
18 17 15 11 8 3 2 3 3 4 7 7 12 15 14 14 15 22 21 11 18 16 16 14 8 9 7 9 10 9 9 10 8 8 3 6 8 9 12 13 13 15 17 17 18
18 17 15 9 2 3 3 3 4 1 5 11 10 12 15 13 10 21 22 12 9 15 14 11 8 10 10 10 11 9 3 3 8 13 10 8 6 11 10 13 16 18 19 19 19
18 17 14 10 8 2 7 4 1 1 5 11 9 10 21 17 18 20 22 13 14 10 9 9 13 12 11 10 10 6 5 3 5 9 3 10 9 10 10 12 16 20 21 20 21
17 17 16 12 10 8 8 3 4 7 10 8 9 15 20 23 11 24 22 14 5 8 14 2 2 7 7 7 4 10 8 6 5 7 9 6 7 9 10 14 13 20 22 21 21
18 17 18 14 4 5 10 6 6 10 5 9 11 18 22 16 15 17 22 20 12 14 13 13 13 7 10 12 8 12 11 7 8 8 5 5 6 12 4 4 7 10 22 22 22
19 18 18 16 13 12 9 9 12 7 12 2 7 17 23 20 16 18 20 20 21 17 13 14 16 15 12 13 11 13 9 4 6 5 7 4 6 3 0 7 8 12 17 23 22
19 17 17 14 15 16 14 16 12 13 8 8 10 15 22 17 12 16 19 22 22 17 11 15 12 11 7 7 8 9 10 5 2 2 6 5 3 8 1 2 3 12 17 18 22
20 16 12 15 12 18 12 21 19 11 4 9 15 16 20 22 16 18 19 20 22 21 18 8 12 12 7 9 3 8 10 7 6 3 5 7 4 2 1 3 1 7 13 18 20
13 7 9 10 14 17 15 23 26 16 13 6 14 11 15 19 22 22 17 10 24 21 21 9 10 11 10 12 14 7 10 8 3 5 4 3 6 4 2 6 3 4 10 15 20
5 5 6 13 12 16 17 22 18 24 19 11 7 10 13 17 21 21 24 21 22 23 23 16 11 10 18 5 4 10 15 14 7 10 2 6 1 6 3 3 6 6 8 13 17
6 8 5 13 9 14 15 23 20 21 21 17 13 9 8 13 15 24 18 16 14 20 20 18 10 9 8 8 6 12 9 12 5 4 5 7 3 5 3 5 7 9 8 13 14
5 4 9 14 17 10 19 18 24 21 18 23 16 12 8 9 13 14 19 8 13 20 8 22 15 16 13 15 16 13 12 14 14 9 8 10 9 4 1 3 3 6 9 11 14
6 3 5 6 14 14 14 13 23 23 22 20 17 18 15 10 13 10 20 10 11 6 11 15 17 15 17 6 9 14 14 15 16 15 9 3 4 2 1 3 6 5 7 11 14
6 4 3 10 6 11 14 18 19 21 15 18 18 19 19 13 11 12 12 14 12 11 13 11 11 12 14 11 14 14 15 16 16 10 11 6 6 0 2 3 4 4 3 6 9
5 7 5 3 8 11 17 17 17 14 24 18 19 17 17 22 18 4 6 8 8 14 18 13 10 11 16 10 13 15 16 18 14 12 9 9 2 3 4 5 6 4 2 3 6
Wind_Direction
8 3 1 359 357 355 350 337 322 283 266 250 242 238 236 238 243 247 255 227 203 200 202 200 238 257 303 322 347 265 151 57 34 21 64 125 117 80 90 103 70 82 115 139 140
4 360 357 355 353 352 348 339 323 283 272 257 238 234 233 236 248 251 235 217 207 170 154 190 218 236 266 5 12 308 69 43 20 29 345 123 131 125 126 110 95 100 118 135 140
358 356 352 352 349 349 345 338 322 282 277 257 234 220 221 223 264 235 227 213 197 189 178 203 190 227 229 7 24 14 42 20 36 31 4 131 134 114 129 129 133 137 139 142 145
353 352 349 348 347 346 343 337 322 282 289 250 222 205 196 180 215 240 210 199 191 181 177 181 201 224 258 52 21 291 69 357 350 7 30 131 113 117 50 75 133 143 143 147 150
348 347 345 346 346 343 341 338 323 284 295 235 200 189 177 203 239 207 189 187 179 170 184 190 210 258 312 21 309 303 1 338 332 19 123 129 111 114 75 106 130 141 147 149 152
344 344 341 342 344 341 341 340 325 300 290 208 186 179 175 223 209 183 172 184 182 177 187 188 218 254 298 3 316 342 310 304 323 101 142 138 132 140 111 126 136 146 151 152 155
339 341 339 339 340 339 338 341 347 324 278 179 179 182 209 160 187 190 186 175 181 182 187 181 176 266 305 260 342 298 282 275 168 162 135 145 150 100 138 141 145 150 154 157 162
335 338 337 336 337 337 333 332 351 355 144 166 173 173 226 214 192 194 189 185 182 180 163 186 235 275 279 296 244 266 256 175 140 164 148 232 117 134 149 149 152 156 160 163 170
331 334 334 333 336 337 335 319 314 5 115 154 157 177 181 198 195 187 181 185 172 178 173 176 228 269 237 245 237 209 175 137 150 196 153 246 116 144 163 162 157 166 168 171 172
326 329 330 331 337 339 341 323 322 281 157 154 191 219 210 204 181 179 180 173 168 167 168 199 223 239 211 226 214 174 175 158 158 167 219 185 105 149 168 172 167 172 175 177 182
321 324 326 327 333 333 343 352 294 212 212 228 188 271 148 149 155 169 167 163 171 177 193 203 226 217 207 220 8 271 233 173 155 129 245 223 125 158 169 178 175 178 178 182 184
316 317 320 322 324 288 349 307 31 291 287 236 230 230 182 166 162 166 162 168 177 192 201 187 225 208 177 212 219 219 186 175 142 165 246 167 163 158 175 187 182 183 185 181 175
315 313 315 319 319 206 271 197 315 336 255 195 207 212 190 186 186 176 179 187 193 197 200 215 156 142 194 193 206 200 231 157 189 166 204 189 181 180 183 189 194 195 190 188 180
313 311 313 320 319 250 187 228 332 263 262 166 198 204 185 188 206 184 186 180 195 203 199 231 150 195 208 205 225 193 144 176 182 204 211 213 205 189 183 198 199 200 197 193 188
310 308 307 306 282 233 209 234 300 224 251 128 145 162 179 186 147 185 188 197 198 190 197 177 191 199 206 201 202 94 152 176 198 218 204 185 267 137 181 220 206 202 199 197 194
304 304 298 298 280 242 205 213 179 229 232 167 159 176 175 201 184 157 184 211 235 199 219 242 151 224 194 139 182 140 157 173 211 236 221 203 246 245 199 229 241 200 197 196 195
299 294 290 280 242 197 183 183 213 233 122 175 183 179 189 183 174 181 188 195 195 190 195 201 202 167 181 151 158 200 192 193 211 204 258 109 234 252 16 358 270 242 195 194 195
296 290 280 268 246 227 206 209 229 218 216 86 191 188 199 182 193 191 188 197 218 215 188 198 185 189 180 206 184 212 258 286 203 194 130 148 236 223 348 292 259 229 214 192 196
301 296 286 267 234 207 205 210 217 237 241 204 184 195 199 190 195 193 203 205 198 209 228 204 208 145 198 180 209 165 221 22 264 121 261 145 185 240 224 332 258 211 207 192 193
313 306 265 247 217 191 216 226 219 228 263 240 210 200 198 196 200 198 193 209 202 196 235 203 213 182 143 168 156 271 159 193 221 242 265 134 260 356 287 353 88 208 198 193 192
316 281 228 211 182 195 218 220 225 201 230 232 230 221 227 198 204 198 192 196 205 200 209 204 236 156 170 206 201 176 205 233 24 316 311 233 119 82 358 356 320 224 211 199 194
291 242 213 177 196 213 224 223 219 224 219 235 257 264 225 219 203 209 215 212 198 204 203 208 210 206 207 108 288 224 209 200 218 174 229 319 23 126 157 288 286 257 212 203 199
278 262 268 178 219 217 228 228 222 223 215 213 221 230 213 221 219 215 209 193 187 189 198 187 217 187 182 167 183 211 205 221 231 285 220 276 97 136 170 253 272 260 222 203 205
277 248 193 209 243 271 211 213 217 228 228 217 224 223 209 215 210 212 206 154 190 205 193 183 209 229 206 209 189 195 198 209 221 225 229 220 275 148 154 314 294 259 246 225 222
233 240 327 197 219 224 244 220 218 219 218 211 217 225 213 230 199 213 209 149 191 173 188 211 221 219 250 287 209 204 208 209 222 240 246 337 283 351 65 347 345 318 259 234 227
276 284 252 282 266 229 208 227 226 218 206 211 224 210 225 225 223 185 189 196 181 185 196 214 218 208 225 236 234 236 229 211 221 222 235 246 262 257 7 316 323 318 267 233 219
268 278 279 213 217 226 219 221 222 233 225 230 215 224 214 221 229 287 298 260 185 183 188 186 175 197 220 212 217 228 210 207 191 202 219 227 214 82 302 331 324 294 229 174 165